Regional Weather Roundup
Issued by NWS

Home | Current Version | Previous Version | Text Only | Print | Product List | Glossary On
Versions: 1 2 3 4 5 6 7 8 9 10 11 12 13 14 15 16 17 18 19 20 21 22 23 24 25 26 27 28 29 30 31 32 33 34 35 36 37 38 39 40 41 42 43 44 45 46 47 48 49 50
000
ASUS45 KABQ 281610
RWRNM
WEATHER ROUNDUP FOR NEW MEXICO
NATIONAL WEATHER SERVICE ALBUQUERQUE NM
900 AM MST FRI NOV 28 2014

NOTE: "FAIR" MEANS FEW OR NO CLOUDS BELOW 12,000 FEET AGL WITH NO
       SIGNIFICANT WEATHER OR OBSTRUCTIONS TO VISION.

      THIS PRODUCT IS RELEASED AS TWO VERSIONS.  ONE VERSION NEAR
      THE TOP OF THE HOUR CONTAINING PRELIMINARY DATA FROM ALBUQUERQUE
      AND OTHER STATIONS.  A FINAL VERSION WITH ADDITIONAL DATA IS
      ISSUED ABOUT 10 MINUTES AFTER THE HOUR.

NMZ501-503-504-510>518-281700-
NORTHWEST PLATEAU/NORTHCENTRAL MOUNTAINS

CITY           SKY/WX    TMP DP  RH WIND       PRES   REMARKS
FARMINGTON     SUNNY     32  21  64 E8        30.27S WCI  25
LOS ALAMOS     SUNNY     40  19  42 CALM      30.32F
SANTA FE       SUNNY     39  21  48 N14       30.29S WCI  31
TAOS           SUNNY     27  21  80 N5        30.32S WCI  21
ANGEL FIRE     FAIR      20  10  63 CALM      30.30F

$$
NMZ402-403-502-505>509-281700-
WESTCENTRAL MOUNTAINS/SOUTHWEST MOUNTAINS

CITY           SKY/WX    TMP DP  RH WIND       PRES   REMARKS
GALLUP         MOSUNNY   32  11  41 CALM      30.31R
GRANTS         SUNNY     28   9  43 NW8       30.33S WCI  20
SILVER CITY    SUNNY     54  19  26 N3        30.31R

$$
NMZ407-409-411-412-281700-
SOUTHERN DESERTS

CITY           SKY/WX    TMP DP  RH WIND       PRES   REMARKS
LORDSBURG      FAIR      43  23  45 CALM      30.27R
DEMING         SUNNY     47  22  37 CALM      30.27R
LAS CRUCES     SUNNY     52  23  32 CALM      30.28R
HOLLOMAN AFB   MOSUNNY   46  22  39 CALM      30.27R
ALAMOGORDO     MOSUNNY   46  23  39 S3        30.28R
T OR C         SUNNY     48  19  31 N5        30.28R

$$
NMZ519>523-281700-
CENTRAL VALLEYS/CENTRAL HIGHLANDS

CITY           SKY/WX    TMP DP  RH WIND       PRES   REMARKS
ALBUQUERQUE    MOSUNNY   39  19  44 NW5       30.30R
DOUBLE EAGLE   MOSUNNY   45  19  36 CALM      30.30R
MORIARTY ARPT  FAIR      28  22  79 CALM      30.31S
CLINES CORNERS PTSUNNY   40  19  43 NW13      30.26R WCI  32
BELEN          FAIR      38  17  42 CALM      30.30S
SOCORRO        FAIR      40  18  42 N7        30.30S WCI  35

$$
NMZ524>526-539-540-281700-
SOUTHCENTRAL MOUNTAINS

CITY           SKY/WX    TMP DP  RH WIND       PRES   REMARKS
RUIDOSO        SUNNY     54  18  24 NW7       30.31S

$$
NMZ527>531-281700-
NORTHEAST HIGHLANDS/NORTHEAST PLAINS

CITY           SKY/WX    TMP DP  RH WIND       PRES   REMARKS
LAS VEGAS      CLOUDY    52   7  16 S13       30.20F
RATON          PTSUNNY   39  21  48 N7        30.14F WCI  34
CLAYTON        CLOUDY    61  10  13 W22G33    30.05S

$$
NMZ532>537-281700-
EASTCENTRAL PLAINS

CITY           SKY/WX    TMP DP  RH WIND       PRES   REMARKS
TUCUMCARI      PTSUNNY   60  21  22 W20       30.07S
CANNON AFB     MOSUNNY   54  24  31 W16       30.14R
CLOVIS AIRPORT MOSUNNY   55  27  33 W20       30.12S

$$
NMZ028-029-538-281700-
SOUTHEAST PLAINS

CITY           SKY/WX    TMP DP  RH WIND       PRES   REMARKS
ROSWELL        MOSUNNY   44  30  57 CALM      30.18S
CARLSBAD       SUNNY     47  30  51 CALM      30.18S
HOBBS          SUNNY     48  32  53 S8        30.19S


$$


USA.gov is the U.S. government's official web portal to all federal, state and local government web resources and services.